FW5198 Weather Reports


Display with metric or nautical units.
time (UTC)temp
F
wind
direction
speed
MPH
gust
MPH
rain 1hr
in
rain 24hr
in
rain mn
in
humidity
%
barometer
mb
20260905234553 91 44 0.0 1.0 0.00 0.00 0.00 73 1012.1
20260905233049 93 44 0.0 1.0 0.00 0.00 0.00 68 1012.2
20260905231546 94 43 0.0 3.0 0.00 0.00 0.00 64 1011.8
20260905230054 96 48 1.0 2.0 0.00 0.00 0.00 58 1011.9
20260905224601 96 46 1.0 3.0 0.00 0.00 0.00 58 1011.8
20260905223053 97 25 1.0 5.0 0.00 0.00 0.00 55 1011.9
20260905221556 96 38 1.0 5.0 0.00 0.00 0.00 55 1011.8
20260905220106 96 91 0.0 7.0 0.00 0.00 0.00 55 1012.0
20260905214549 97 0 2.0 6.0 0.00 0.00 0.00 54 1011.9
20260905213050 98 57 1.0 4.0 0.00 0.00 0.00 53 1012.0
20260905211603 98 46 2.0 6.0 0.00 0.00 0.00 51 1012.1
20260905210056 98 87 1.0 2.0 0.00 0.00 0.00 52 1012.1
20260905204555 98 200 1.0 4.0 0.00 0.00 0.00 51 1012.3
20260905203111 98 54 1.0 4.0 0.00 0.00 0.00 51 1012.5
20260905201547 98 1 2.0 9.0 0.00 0.00 0.00 51 1012.8
20260905200054 97 25 4.0 8.0 0.00 0.00 0.00 52 1013.0
20260905194551 97 29 1.0 5.0 0.00 0.00 0.00 52 1013.1
20260905193048 97 61 4.0 8.0 0.00 0.00 0.00 55 1013.4
20260905191546 97 30 2.0 9.0 0.00 0.00 0.00 54 1013.4
20260905190047 97 15 3.0 8.0 0.00 0.00 0.00 55 1013.8
20260905184600 97 150 1.0 6.0 0.00 0.00 0.00 56 1014.2
20260905183050 96 188 1.0 4.0 0.00 0.00 0.00 57 1014.2
20260905181605 95 69 1.0 4.0 0.00 0.00 0.00 59 1014.4
20260905180051 96 30 1.0 7.0 0.00 0.00 0.00 58 1014.6
20260905174624 95 20 3.0 6.0 0.00 0.00 0.00 59 1014.6
20260905173056 98 154 0.0 2.0 0.00 0.00 0.00 58 1014.7
20260905171549 97 37 0.0 3.0 0.00 0.00 0.00 55 1014.9
20260905170046 96 0 0.0 0.0 0.00 0.00 0.00 58 1015.0
20260905164546 95 0 0.0 0.0 0.00 0.00 0.00 56 1015.2
20260905163050 95 0 0.0 0.0 0.00 0.00 0.00 58 1015.3
20260905161547 94 0 0.0 0.0 0.00 0.00 0.00 60 1015.4
20260905160114 91 0 0.0 0.0 0.00 0.00 0.00 64 1015.5
20260905154551 89 0 0.0 0.0 0.00 0.00 0.00 71 1015.7
20260905153047 88 0 0.0 0.0 0.00 0.00 0.00 72 1015.9
20260905151602 87 0 0.0 0.0 0.00 0.00 0.00 75 1015.8
20260905150055 86 0 0.0 0.0 0.00 0.00 0.00 77 1015.9
20260905144549 84 0 0.0 0.0 0.00 0.00 0.00 82 1016.0
20260905143048 82 0 0.0 0.0 0.00 0.00 0.00 86 1016.0
20260905141550 81 0 0.0 0.0 0.00 0.00 0.00 87 1015.8
20260905140049 81 0 0.0 0.0 0.00 0.00 0.00 87 1015.8
20260905134545 79 0 0.0 0.0 0.00 0.00 0.00 89 1015.7
20260905133052 78 0 0.0 0.0 0.00 0.00 0.00 91 1015.9
20260905131549 77 0 0.0 0.0 0.00 0.00 0.00 91 1015.9
20260905130056 77 0 0.0 0.0 0.00 0.00 0.00 93 1015.8
20260905124555 76 0 0.0 0.0 0.00 0.00 0.00 94 1015.8
20260905123052 75 0 0.0 0.0 0.00 0.00 0.00 96 1015.8
20260905121547 74 0 0.0 0.0 0.00 0.00 0.00 96 1015.6
20260905120055 74 0 0.0 0.0 0.00 0.00 0.00 96 1015.5
20260905114552 74 0 0.0 0.0 0.00 0.00 0.00 96 1015.4
20260905113048 73 0 0.0 0.0 0.00 0.00 0.00 96 1015.1
20260905111558 73 0 0.0 0.0 0.00 0.00 0.00 96 1015.0
20260905110044 73 0 0.0 0.0 0.00 0.00 0.00 96 1014.7
20260905104550 74 0 0.0 0.0 0.00 0.00 0.00 96 1014.5
20260905103052 74 0 0.0 0.0 0.00 0.00 0.00 96 1014.4
20260905101547 74 0 0.0 0.0 0.00 0.00 0.00 96 1014.4
20260905100047 74 0 0.0 0.0 0.00 0.00 0.00 95 1014.4
20260905094553 74 0 0.0 0.0 0.00 0.00 0.00 95 1014.4
20260905093047 74 0 0.0 0.0 0.00 0.00 0.00 96 1014.4
20260905091614 74 0 0.0 0.0 0.00 0.00 0.00 95 1014.5
20260905090106 74 0 0.0 0.0 0.00 0.00 0.00 95 1014.4
20260905084550 75 0 0.0 0.0 0.00 0.00 0.00 95 1014.4
20260905083046 75 0 0.0 0.0 0.00 0.00 0.00 95 1014.3
20260905081553 75 0 0.0 0.0 0.00 0.00 0.00 94 1014.4
20260905080055 75 0 0.0 0.0 0.00 0.00 0.00 94 1014.5
20260905074547 75 0 0.0 0.0 0.00 0.00 0.00 94 1014.5
20260905073053 75 0 0.0 0.0 0.00 0.00 0.00 94 1014.5
20260905071546 75 0 0.0 0.0 0.00 0.00 0.00 94 1014.5
20260905070059 75 0 0.0 0.0 0.00 0.00 0.00 94 1014.4
20260905064548 75 0 0.0 0.0 0.00 0.00 0.00 94 1014.4
20260905063059 76 0 0.0 0.0 0.00 0.00 0.00 94 1014.4
20260905061619 76 0 0.0 0.0 0.00 0.00 0.00 93 1014.5
20260905060107 76 0 0.0 1.0 0.00 0.00 0.00 93 1014.6
20260905054549 76 0 0.0 1.0 0.00 0.00 0.00 92 1014.7
20260905053052 76 0 0.0 1.0 0.00 0.00 0.00 93 1014.8
20260905051553 77 0 0.0 1.0 0.00 0.00 0.00 92 1014.8
20260905050047 77 0 0.0 1.0 0.00 0.00 0.00 92 1015.0
20260905044550 77 0 0.0 0.0 0.00 0.00 0.00 91 1015.1
20260905043048 78 0 0.0 0.0 0.00 0.00 0.00 90 1015.0
20260905041550 78 0 0.0 0.0 0.00 0.00 0.00 90 1015.2
20260905040049 78 0 0.0 0.0 0.00 0.00 0.00 90 1015.2
20260905034554 79 0 0.0 0.0 0.00 0.00 0.00 89 1015.3
20260905033046 79 0 0.0 1.0 0.00 0.00 0.00 88 1015.3
20260905031554 80 0 0.0 1.0 0.00 0.00 0.00 88 1015.5
20260905030047 80 39 0.0 1.0 0.00 0.00 0.00 86 1015.5
20260905024548 81 0 0.0 0.0 0.00 0.00 0.00 86 1015.7
20260905023046 81 0 0.0 1.0 0.00 0.00 0.00 86 1015.6
20260905021556 81 0 0.0 2.0 0.00 0.00 0.00 85 1015.6
20260905020048 81 0 0.0 1.0 0.00 0.00 0.00 86 1015.6
20260905014547 81 0 0.0 1.0 0.00 0.00 0.00 85 1015.4
20260905013050 82 0 0.0 1.0 0.00 0.00 0.00 83 1015.3
20260905011549 83 47 1.0 2.0 0.00 0.00 0.00 82 1015.3
20260905010046 84 0 0.0 1.0 0.00 0.00 0.00 80 1015.2
20260905004549 85 49 0.0 1.0 0.00 0.00 0.00 79 1015.0
20260905003052 87 0 0.0 1.0 0.00 0.00 0.00 74 1014.9
20260905001555 88 0 0.0 2.0 0.00 0.00 0.00 71 1014.7